TERRA

Last updated on Sun Jun 21 2026 00:02:15 GMT+0000 (Coordinated Universal Time)

1 25994U 99068A 26171.44083515 .00000275 00000+0 65041-4 0 9991 2 25994 97.9454 220.8581 0001842 178.7606 238.1366 14.61105267410080
UTC large
Height (km)
Speed (km/s)
/
Latitude / Longitude
Inclination (degrees)
Orbital Period (minutes)
Azimuth
Elevation
Range (km)
Doppler Factor

Next 0 passes for location: London (51.5072 / 0.1276)

No passes found over London.
TERRA